Showing default

EXPLORER 40 (INJUN-5), 3338

Orbit data source: Space-Track

EXPLORER 40 (INJUN-5), 3338 is a payload satellite owned by NASA LaRC (US) in LEO that was launched on Thu, 08 Aug 1968 UTC via an SCOUT B launch vehicle from the Air Force Western Test Range (AFWTR). Payloads include a variety of satellites, spacecraft, and rockets equipped with specific instruments for various scientific and technological missions. These include communications satellites like Starlink; space stations such as the ISS; scientific satellites like the Hubble; Earth observation satellites from companies like Planet Labs, Umbra, and HawkEye 360; GPS; miniature CubeSats for education and research; and military/defense satellites.

Loading next visibility...
EXPLORER 40 (INJUN-5) details
Identifier
3338, 1968-066B
Orbit
LEO
Last TLE update15 hours ago
Origin
Flag of USNASA LaRC (US)
ManufacturerIowa
MissionCivil Science
Bus & MotorINJUN E, Unknown motor
Mass70 kg wet, 70 kg dry
Launch date (UTC)
1968-08-08 (56 years ago)
Launch vehicle
SCOUT B
Launch site
Air Force Western Test Range (AFWTR)
Object type
Payload
Rocket body
Debris
Shape & HBRHex Cyl, 0.76 m
Radar Cross Section0.609 m², Large (>1 m²)

Expand to show TLE details & history

TLE from 15 hours ago
0 EXPLORER 40 (INJUN-5)
1 03338U 68066B   24355.89536000  .00000160  00000-0  16864-3 0  9998
2 03338  80.6611 142.3599 1129633 333.0388  21.6015 12.23339523511877
Epoch: 2024-12-20T21:29Z
Definitive object data (Epoch: 2024-12-20T21:29:19.103Z)
Latitude-0.00004°
Longitude90.07599°
Altitude761.219 km
Speed7.849 km/s
True Right ascension09h 29m 26s
True Declination0° 00' 00"
Sunlit
Object was in full shadow at TLE epoch
Visualization TLE readout
Latitude-2.99092°
Longitude-89.9053°
Altitude2,320.437 km
Speed6.448 km/s
Apparent Right ascension22h 08m 51s
Apparent Declination-18° 52' 32"
Sunlit
Object is in daylight
Visualization observer readout
Local Sidereal Time11:19:23
Azimuth40.936° NE
Elevation-64.056°
Doppler factor1
Orbital elements
Apogee altitude2,473.898 km
Perigee altitude676.974 km
Semi-major axis7,953.573 km
Eccentricity0.1129633
Inclination80.6611°
RAAN142.3599°
Arg. of periapsis333.0388°
True anomaly27.07366°
Mean anomaly21.6015°
Eccentric anomaly24.26093°
Mean motion3.05985 °/min
BSTAR0.00016864
Orbital period117.65 mins
Loading maneuver chart data...
Loading historical data...
Loading historical data...
Loading historical data...
Loading historical data...
Loading historical data...
Loading historical data...
Loading historical data...

EXPLORER 40 (INJUN-5) Visibility forecast

Observer location: undefined°, undefined

Span
Click to sort rows by Start time (UTC) header in descending order
Start Az.
Max El. time (UTC)
Max El. Az.
Max El.
End time (UTC)
End Az.
20 mins2024-12-21 19:38:37.342Z9.412° NNE2024-12-21 19:48:37.342Z64.177° ENE25.551°2024-12-21 19:58:37.342Z113.432° SE
25 mins2024-12-21 21:37:37.342Z350.424° N2024-12-21 21:48:37.342Z25.042° NE44.958°2024-12-21 22:02:37.342Z172.808° S
19 mins2024-12-21 23:37:37.342Z327.026° NNW2024-12-21 23:46:37.342Z280.065° WNW25.496°2024-12-21 23:56:37.342Z231.231° WSW
5 mins2024-12-22 08:59:37.342Z86.659° E2024-12-22 09:01:37.342Z68.585° E13.822°2024-12-22 09:04:37.342Z46.292° ENE
13 mins2024-12-22 10:53:37.342Z194.657° SSW2024-12-22 10:57:37.342Z232.859° WSW44.276°2024-12-22 11:06:37.342Z8.901° NNE
|